Retour au catalogue

SL-8 R/B

ActifPO
NORAD 22591·ROCKET BODY·🇷🇺 Russia

Lancé Apr 1, 1993 depuis Plesetsk Cosmodrome

Loading…

Prochains Passages (prochaines 24 heures)

TLE

FraisSource: Space-Track

Époque: Sep 14, 2026, 20:54 UTC

1 22591U 93020B   26257.87095490 -.00000011  00000-0 -25644-4 0  9996
2 22591  82.9282  43.1278 0023961 277.7586 245.2778 13.77764834681369

Suivez SL-8 R/B en temps réel avec AllMySat

Download on the App Store